TimeEDT,TemperatureF,Dew PointF,Humidity,Sea Level PressureIn,VisibilityMPH,Wind Direction,Wind SpeedMPH,Gust SpeedMPH,PrecipitationIn,Events,Conditions,WindDirDegrees,DateUTC
12:15 AM,45.7,45.7,100,30.21,10.0,North,-9999.0,-,N/A,,Clear,0,2013-10-08 04:15:00
12:35 AM,45.5,45.5,100,30.21,10.0,North,-9999.0,-,N/A,,Clear,0,2013-10-08 04:35:00
12:55 AM,45.0,45.0,100,30.21,10.0,North,-9999.0,-,N/A,,Clear,0,2013-10-08 04:55:00
1:15 AM,44.8,44.8,100,30.20,10.0,North,-9999.0,-,N/A,,Clear,0,2013-10-08 05:15:00
1:35 AM,44.4,44.4,100,30.20,10.0,North,-9999.0,-,N/A,,Clear,0,2013-10-08 05:35:00
1:55 AM,44.2,44.2,100,30.20,10.0,North,-9999.0,-,N/A,,Clear,0,2013-10-08 05:55:00
2:15 AM,43.7,43.7,100,30.20,10.0,North,-9999.0,-,N/A,,Clear,0,2013-10-08 06:15:00
2:35 AM,43.9,43.9,100,30.20,10.0,North,-9999.0,-,N/A,,Mostly Cloudy,0,2013-10-08 06:35:00
2:55 AM,44.2,44.2,100,30.20,7.0,North,-9999.0,-,N/A,,Overcast,0,2013-10-08 06:55:00
3:15 AM,45.1,45.1,100,30.20,0.8,North,-9999.0,-,N/A,,Overcast,0,2013-10-08 07:15:00
3:35 AM,45.5,45.5,100,30.20,0.2,North,-9999.0,-,N/A,Fog,Fog,0,2013-10-08 07:35:00
3:55 AM,45.5,45.5,100,30.20,0.5,North,-9999.0,-,N/A,Fog,Fog,0,2013-10-08 07:55:00
4:15 AM,44.6,44.6,100,30.21,0.5,North,-9999.0,-,N/A,Fog,Fog,0,2013-10-08 08:15:00
4:35 AM,45.0,45.0,100,30.22,0.5,North,-9999.0,-,N/A,Fog,Fog,0,2013-10-08 08:35:00
4:55 AM,45.5,45.5,100,30.22,0.5,North,-9999.0,-,N/A,Fog,Fog,0,2013-10-08 08:55:00
5:15 AM,45.5,45.5,100,30.23,0.2,North,-9999.0,-,N/A,Fog,Fog,0,2013-10-08 09:15:00
5:35 AM,45.5,45.5,100,30.24,0.8,North,-9999.0,-,N/A,,Overcast,0,2013-10-08 09:35:00
5:55 AM,44.6,44.6,100,30.24,1.5,North,-9999.0,-,N/A,,Overcast,0,2013-10-08 09:55:00
6:15 AM,44.6,44.6,100,30.25,1.2,North,-9999.0,-,N/A,,Overcast,0,2013-10-08 10:15:00
6:35 AM,43.7,43.7,100,30.26,2.0,North,-9999.0,-,N/A,,Overcast,0,2013-10-08 10:35:00
6:55 AM,43.7,43.7,100,30.26,0.5,North,-9999.0,-,N/A,Fog,Fog,0,2013-10-08 10:55:00
7:15 AM,43.5,43.5,100,30.27,0.2,North,-9999.0,-,N/A,Fog,Fog,0,2013-10-08 11:15:00
7:35 AM,43.3,43.3,100,30.27,0.8,North,-9999.0,-,N/A,,Overcast,0,2013-10-08 11:35:00
7:55 AM,43.5,43.5,100,30.28,0.2,North,-9999.0,-,N/A,Fog,Fog,0,2013-10-08 11:55:00
8:15 AM,43.0,43.0,100,30.28,0.2,North,-9999.0,-,N/A,Fog,Fog,0,2013-10-08 12:15:00
8:35 AM,43.9,43.9,100,30.29,0.2,North,-9999.0,-,N/A,Fog,Fog,0,2013-10-08 12:35:00
8:55 AM,44.2,44.2,100,30.29,1.8,North,-9999.0,-,N/A,,Overcast,0,2013-10-08 12:55:00
9:15 AM,45.5,45.5,100,30.30,1.5,North,-9999.0,-,N/A,,Overcast,0,2013-10-08 13:15:00
9:35 AM,47.8,47.8,100,30.29,10.0,North,-9999.0,-,N/A,,Scattered Clouds,0,2013-10-08 13:35:00
9:55 AM,51.3,51.3,100,30.29,10.0,North,-9999.0,-,N/A,,Clear,0,2013-10-08 13:55:00
10:15 AM,54.5,52.3,92,30.28,10.0,North,-9999.0,-,N/A,,Clear,0,2013-10-08 14:15:00
10:35 AM,57.2,51.4,81,30.29,10.0,North,-9999.0,-,N/A,,Clear,0,2013-10-08 14:35:00
10:55 AM,59.4,50.2,72,30.29,10.0,North,-9999.0,-,N/A,,Clear,0,2013-10-08 14:55:00
11:15 AM,61.2,48.6,63,30.28,10.0,North,-9999.0,-,N/A,,Clear,0,2013-10-08 15:15:00
11:35 AM,62.8,47.5,57,30.28,10.0,North,-9999.0,-,N/A,,Clear,0,2013-10-08 15:35:00
11:55 AM,64.0,47.1,54,30.28,10.0,North,-9999.0,-,N/A,,Clear,0,2013-10-08 15:55:00
12:15 PM,65.1,46.4,51,30.28,10.0,North,-9999.0,-,N/A,,Clear,0,2013-10-08 16:15:00
12:35 PM,65.5,46.0,49,30.28,10.0,North,-9999.0,-,N/A,,Clear,0,2013-10-08 16:35:00
12:55 PM,67.3,47.3,49,30.28,10.0,North,-9999.0,-,N/A,,Clear,0,2013-10-08 16:55:00
1:15 PM,68.0,46.4,46,30.27,10.0,North,-9999.0,-,N/A,,Clear,0,2013-10-08 17:15:00
1:35 PM,68.2,46.2,45,30.26,10.0,North,-9999.0,-,N/A,,Clear,0,2013-10-08 17:35:00
1:55 PM,69.6,46.4,43,30.25,10.0,North,-9999.0,-,N/A,,Clear,0,2013-10-08 17:55:00
2:15 PM,70.0,47.1,44,30.24,10.0,North,-9999.0,-,N/A,,Clear,0,2013-10-08 18:15:00
2:35 PM,70.0,46.6,43,30.24,10.0,North,-9999.0,-,N/A,,Clear,0,2013-10-08 18:35:00
2:55 PM,70.7,46.9,43,30.23,10.0,North,-9999.0,-,N/A,,Clear,0,2013-10-08 18:55:00
3:15 PM,71.1,46.0,41,30.24,10.0,North,-9999.0,-,N/A,,Clear,0,2013-10-08 19:15:00
3:35 PM,70.9,47.1,43,30.24,10.0,North,-9999.0,-,N/A,,Clear,0,2013-10-08 19:35:00
3:55 PM,71.8,46.6,41,30.24,10.0,North,-9999.0,-,N/A,,Clear,0,2013-10-08 19:55:00
4:15 PM,71.1,46.4,41,30.24,10.0,North,-9999.0,-,N/A,,Clear,0,2013-10-08 20:15:00
4:35 PM,70.9,47.8,44,30.24,10.0,North,-9999.0,-,N/A,,Clear,0,2013-10-08 20:35:00
4:55 PM,68.7,48.0,48,30.24,10.0,North,-9999.0,-,N/A,,Clear,0,2013-10-08 20:55:00
5:15 PM,67.5,48.7,51,30.23,10.0,North,-9999.0,-,N/A,,Clear,0,2013-10-08 21:15:00
5:35 PM,63.9,50.9,63,30.24,10.0,North,-9999.0,-,N/A,,Clear,0,2013-10-08 21:35:00
5:55 PM,62.1,49.8,64,30.24,10.0,North,-9999.0,-,N/A,,Clear,0,2013-10-08 21:55:00
6:15 PM,60.4,50.5,70,30.24,10.0,North,-9999.0,-,N/A,,Clear,0,2013-10-08 22:15:00
6:35 PM,58.1,51.6,79,30.25,10.0,North,-9999.0,-,N/A,,Clear,0,2013-10-08 22:35:00
6:55 PM,56.7,51.8,84,30.25,10.0,North,-9999.0,-,N/A,,Clear,0,2013-10-08 22:55:00
7:15 PM,55.4,51.8,88,30.25,10.0,North,-9999.0,-,N/A,,Clear,0,2013-10-08 23:15:00
7:35 PM,54.0,51.4,91,30.25,10.0,North,-9999.0,-,N/A,,Clear,0,2013-10-08 23:35:00
7:55 PM,52.7,50.9,94,30.25,10.0,North,-9999.0,-,N/A,,Clear,0,2013-10-08 23:55:00
8:15 PM,51.8,50.5,95,30.26,10.0,North,-9999.0,-,N/A,,Clear,0,2013-10-09 00:15:00
8:35 PM,51.3,50.2,96,30.26,10.0,North,-9999.0,-,N/A,,Clear,0,2013-10-09 00:35:00
8:55 PM,50.9,50.0,97,30.27,10.0,North,-9999.0,-,N/A,,Clear,0,2013-10-09 00:55:00
9:15 PM,50.0,49.5,98,30.27,10.0,North,-9999.0,-,N/A,,Clear,0,2013-10-09 01:15:00
9:35 PM,50.4,50.0,99,30.29,10.0,North,-9999.0,-,N/A,,Clear,0,2013-10-09 01:35:00
9:55 PM,50.0,49.3,97,30.29,10.0,North,-9999.0,-,N/A,,Clear,0,2013-10-09 01:55:00
10:15 PM,49.5,49.1,99,30.29,10.0,North,-9999.0,-,N/A,,Clear,0,2013-10-09 02:15:00
10:35 PM,49.1,48.7,99,30.29,10.0,North,-9999.0,-,N/A,,Clear,0,2013-10-09 02:35:00
10:55 PM,48.4,48.4,100,30.29,10.0,North,-9999.0,-,N/A,,Clear,0,2013-10-09 02:55:00
11:15 PM,47.8,47.8,100,30.29,10.0,North,-9999.0,-,N/A,,Clear,0,2013-10-09 03:15:00
11:35 PM,47.7,47.7,100,30.30,10.0,North,-9999.0,-,N/A,,Clear,0,2013-10-09 03:35:00
11:55 PM,46.9,46.9,100,30.30,10.0,North,-9999.0,-,N/A,,Clear,0,2013-10-09 03:55:00